This is the latest recevied weather packets stored in our database for station/object WC4PEM-12. If no packets are shown the sender has not sent any weather packets the latest 10 day(s).
| Time | Temp. | Humidity | Pressure | Rain* | Wind** | Luminosity | Snow |
|---|---|---|---|---|---|---|---|
| 1777403896 | 31.11° C | 53% | 1018 hPa | 0 mm | - | - | - |
| 1777403779 | 31.11° C | 54% | 1018.1 hPa | 0 mm | - | - | - |
| 1777403658 | 31.11° C | 50% | 1018.2 hPa | 0 mm | - | - | - |
| 1777403596 | 31.11° C | 54% | 1018.1 hPa | 0 mm | - | - | - |
| 1777403296 | 31.11° C | 54% | 1018.2 hPa | 0 mm | - | - | - |
| 1777402996 | 31.11° C | 53% | 1018.3 hPa | 0 mm | - | - | - |
| 1777402843 | 31.11° C | 53% | 1018.1 hPa | 0 mm | - | - | - |
| 1777402696 | 31.11° C | 53% | 1018.1 hPa | 0 mm | - | - | - |
| 1777402396 | 31.11° C | 52% | 1018.1 hPa | 0 mm | - | - | - |
| 1777402231 | 31.11° C | 50% | 1018.2 hPa | 0 mm | - | - | - |
| 1777402096 | 31.11° C | 50% | 1018.2 hPa | 0 mm | - | - | - |
| 1777401796 | 31.11° C | 53% | 1018.1 hPa | 0 mm | - | - | - |
| 1777401497 | 31.11° C | 54% | 1018.2 hPa | 0 mm | - | - | - |
| 1777401196 | 30.56° C | 57% | 1018.3 hPa | 0 mm | - | - | - |
| 1777400976 | 30.56° C | 56% | 1018.3 hPa | 0 mm | - | - | - |
| 1777400897 | 30.56° C | 56% | 1018.3 hPa | 0 mm | - | - | - |
| 1777400662 | 30° C | 56% | 1018.5 hPa | 0 mm | - | - | - |
| 1777400597 | 30° C | 56% | 1018.5 hPa | 0 mm | - | - | - |
| 1777400569 | 30.56° C | 56% | 1018.6 hPa | 0 mm | - | - | - |
| 1777400297 | 30.56° C | 56% | 1018.6 hPa | 0 mm | - | - | - |
| 1777400199 | 30.56° C | 56% | 1018.6 hPa | 0 mm | - | - | - |
| 1777400077 | 30.56° C | 56% | 1018.6 hPa | 0 mm | - | - | - |
| 1777399996 | 30.56° C | 56% | 1018.6 hPa | 0 mm | - | - | - |
| 1777399697 | 30.56° C | 56% | 1018.6 hPa | 0 mm | - | - | - |
| 1777399614 | 30.56° C | 56% | 1018.6 hPa | 0 mm | - | - | - |
* Rain latest hour (hover to see other rain measurements)
** Current wind speed in m/s (hover to see current wind gust speed)